Weather History for Charlottetown, PE

Change the Weather History Date:

Sunday, March 25, 2012

  Actual Average Record
Temperature  
Mean Temperature 30 °F -  
Max Temperature 37 °F 41 °F 44 °F (1999)
Min Temperature 23 °F 27 °F 9 °F (2014)
Degree Days  
Heating Degree Days 35    
Moisture  
Dew Point 16 °F    
Average Humidity 52    
Maximum Humidity 74    
Minimum Humidity 31    
Precipitation  
Precipitation 0.04 in 0.12 in - ()
Sea Level Pressure  
Sea Level Pressure 29.95 in    
Wind  
Wind Speed 5 mph ()    
Max Wind Speed 13 mph    
Max Gust Speed 18 mph    
Visibility 15.0 miles    
Events Snow    
Averages and records for this station are not official NWS values.
T = Trace of Precipitation, MM = Missing Value Source: Averaged Metar Reports

Daily Weather History Graph

Daily Weather History Graph

Search for Another Location

Airport:

Trip Planner

Search our weather history database for the weather conditions in past years. The results will help you decide how hot, cold, wet, or windy it might be!

Date:

Astronomy

Mar. 25, 2012 Rise Set
Actual Time 7:04 AM ADT 7:32 PM ADT
Civil Twilight 6:34 AM ADT 8:02 PM ADT
Nautical Twilight 5:59 AM ADT 8:38 PM ADT
Astronomical Twilight 5:22 AM ADT 9:15 PM ADT
Moon 8:02 AM ADT (3/25) 10:58 PM ADT (3/25)
Length of Visible Light 13h 27m
Length of Day
12h 27m
Waxing Crescent, 8% of the Moon is Illuminated
Mar 25
Waxing Crescent
Mar 30
First Quarter
Apr 6
Full
Apr 13
Last Quarter
Apr 21
New

Hourly Weather History & Observations

Time (ADT) Temp. Windchill Dew Point Humidity Pressure Visibility Wind Dir Wind Speed Gust Speed Precip Events Conditions
12:00 AM 24.8 °F - 17.6 °F 74% 29.96 in 15.0 mi NW 2.3 mph - N/A   Partly Cloudy
1:00 AM 24.8 °F - 15.8 °F 69% 29.95 in 15.0 mi West 2.3 mph - N/A   Clear
2:00 AM 26.6 °F 22.6 °F 15.8 °F 64% 29.96 in 15.0 mi NW 3.5 mph - N/A   Clear
3:00 AM 27 °F - 14 °F 44% 29.97 in 15 mi NW 4.6 mph - -  
3:00 AM 26.6 °F 21.2 °F 14.0 °F 59% 29.97 in 15.0 mi NW 4.6 mph - N/A   Clear
4:00 AM 26.6 °F 21.2 °F 14.0 °F 59% 29.97 in 15.0 mi NW 4.6 mph - N/A   Partly Cloudy
5:00 AM 28.4 °F 20.4 °F 14.0 °F 55% 29.98 in 15.0 mi NNW 8.1 mph - N/A   Partly Cloudy
6:00 AM 26.6 °F 21.2 °F 15.8 °F 64% 29.99 in 15.0 mi NNE 4.6 mph - N/A   Partly Cloudy
7:00 AM 24.8 °F 20.5 °F 15.8 °F 69% 29.99 in 15.0 mi North 3.5 mph - N/A   Scattered Clouds
8:00 AM 26.6 °F - 17.6 °F 69% 30.01 in 15.0 mi NNW 2.3 mph - N/A   Scattered Clouds
9:00 AM 29 °F - 17 °F 48% 30.01 in 15 mi North 2.3 mph - -   Clear
9:00 AM 28.4 °F 23.3 °F 17.6 °F 64% 30.01 in 15.0 mi North 4.6 mph - N/A   Partly Cloudy
10:00 AM 32.0 °F 25.6 °F 15.8 °F 51% 30.02 in 15.0 mi NNW 6.9 mph - N/A   Partly Cloudy
11:00 AM 33.8 °F 29.6 °F 15.8 °F 48% 30.01 in 15.0 mi NNW 4.6 mph - N/A   Mostly Cloudy
12:00 PM 35.6 °F 31.7 °F 15.8 °F 44% 29.99 in 15.0 mi West 4.6 mph - N/A   Mostly Cloudy
1:00 PM 37.4 °F 30.3 °F 17.6 °F 45% 29.98 in 15.0 mi SSW 10.4 mph 18.4 mph N/A   Mostly Cloudy
2:00 PM 35.6 °F 27.1 °F 19.4 °F 52% 29.96 in 15.0 mi SSW 12.7 mph - N/A   Mostly Cloudy
3:00 PM 35 °F - 16 °F 31% 29.96 in 15 mi SSW 11.5 mph - -   Overcast
3:00 PM 35.6 °F 27.5 °F 15.8 °F 44% 29.96 in 15.0 mi SSW 11.5 mph - N/A   Overcast
4:00 PM 37.4 °F - 14.0 °F 38% 29.92 in 15.0 mi South 2.3 mph - N/A   Overcast
5:00 PM 37.4 °F 33.8 °F 14.0 °F 38% 29.91 in 15.0 mi SSW 4.6 mph - N/A   Overcast
6:00 PM 37.4 °F 32.8 °F 14.0 °F 38% 29.89 in 15.0 mi South 5.8 mph - N/A   Overcast
7:00 PM 35.6 °F 30.7 °F 12.2 °F 38% 29.88 in 15.0 mi South 5.8 mph - N/A   Overcast
8:00 PM 35.6 °F 31.7 °F 14.0 °F 41% 29.87 in 15.0 mi SW 4.6 mph - N/A   Overcast
9:00 PM 35 °F - 18 °F 35% 29.86 in 15 mi South 8.1 mph - -   Overcast
9:00 PM 35.6 °F 29.2 °F 17.6 °F 48% 29.86 in 15.0 mi South 8.1 mph - N/A   Overcast
10:00 PM 33.8 °F 27.7 °F 21.2 °F 60% 29.84 in 15.0 mi South 6.9 mph - N/A   Overcast
10:49 PM 35.6 °F 28.6 °F - N/A% - 15.0 mi SSW 9.2 mph - N/A Snow Light Snow Showers
11:00 PM 35.6 °F 29.2 °F 23.0 °F 60% 29.82 in 15.0 mi South 8.1 mph - N/A Snow Light Snow Showers